Melbourne, FL

4:44 PM EDT on October 20, 2017 (GMT -0400)
Melbourne International

Weather History for KMLB - November, 2013

Change the Weather History Date:

Saturday, November 16, 2013

  Actual Average Record
Temperature  
Mean Temperature 76 °F 69 °F  
Max Temperature 81 °F 78 °F 85 °F (1998)
Min Temperature 70 °F 59 °F 30 °F (1940)
Degree Days  
Heating Degree Days 0 1  
Month to date heating degree days 0 14  
Since 1 July heating degree days 0 18  
Cooling Degree Days 11 5  
Month to date cooling degree days 158 99  
Year to date cooling degree days 3486 3136  
Growing Degree Days 26 (Base 50)    
Moisture  
Dew Point 66 °F    
Average Humidity 72    
Maximum Humidity 90    
Minimum Humidity 54    
Precipitation  
Precipitation 0.04 in 0.09 in 3.28 in (1951)
Month to date precipitation 0.14 1.75  
Year to date precipitation 36.13 48.30  
Sea Level Pressure  
Sea Level Pressure 30.09 in    
Wind  
Wind Speed 8 mph (ESE)    
Max Wind Speed 16 mph    
Max Gust Speed 22 mph    
Visibility 10 miles    
Events Rain    
T = Trace of Precipitation, MM = Missing Value Source: NWS Daily Summary

Daily Weather History Graph

Daily Weather History Graph

Search for Another Location

Airport or City:

Trip Planner

Search our weather history database for the weather conditions in past years. The results will help you decide how hot, cold, wet, or windy it might be!

Date:

Astronomy

Nov. 16, 2013 Rise Set
Actual Time 6:45 AM EST 5:29 PM EST
Civil Twilight 6:20 AM EST 5:54 PM EST
Nautical Twilight 5:52 AM EST 6:22 PM EST
Astronomical Twilight 5:24 AM EST 6:50 PM EST
Moon 5:00 PM EST (11/16) 5:44 AM EST (11/16)
Length of Visible Light 11h 33m
Length of Day
10h 43m
Waxing Gibbous, 99% of the Moon is Illuminated
Nov 16
Waxing Gibbous
Nov 17
Full
Nov 25
Last Quarter
Dec 2
New
Dec 9
First Quarter

Hourly Weather History & Observations

Time (EST) Temp. Heat Index Dew Point Humidity Pressure Visibility Wind Dir Wind Speed Gust Speed Precip Events Conditions
12:53 AM 73.9 °F - 69.1 °F 85% 30.08 in 10.0 mi ESE 12.7 mph - 0.00 in   Overcast
1:53 AM 73.9 °F - 68.0 °F 82% 30.07 in 10.0 mi SSE 12.7 mph 21.9 mph 0.00 in Rain Light Rain
2:53 AM 73.9 °F - 66.9 °F 79% 30.06 in 10.0 mi SSE 10.4 mph - 0.00 in Rain Light Rain
3:53 AM 73.0 °F - 66.9 °F 81% 30.04 in 10.0 mi SSE 10.4 mph 18.4 mph 0.01 in   Mostly Cloudy
4:53 AM 73.9 °F - 68.0 °F 82% 30.06 in 10.0 mi SSE 5.8 mph - N/A   Partly Cloudy
5:53 AM 73.0 °F - 68.0 °F 84% 30.06 in 10.0 mi SSE 9.2 mph - 0.00 in   Mostly Cloudy
6:53 AM 73.0 °F - 68.0 °F 84% 30.08 in 10.0 mi South 10.4 mph - 0.00 in   Partly Cloudy
7:53 AM 73.9 °F - 68.0 °F 82% 30.10 in 10.0 mi SE 6.9 mph - N/A   Clear
8:53 AM 75.9 °F - 68.0 °F 76% 30.13 in 10.0 mi ESE 6.9 mph - N/A   Mostly Cloudy
9:53 AM 77.0 °F - 68.0 °F 74% 30.14 in 10.0 mi ESE 5.8 mph - N/A   Mostly Cloudy
10:53 AM 79.0 °F - 68.0 °F 69% 30.13 in 10.0 mi ESE 10.4 mph - N/A   Mostly Cloudy
11:53 AM 80.1 °F 82.1 °F 66.0 °F 62% 30.12 in 10.0 mi East 9.2 mph - N/A   Overcast
12:53 PM 80.1 °F 81.2 °F 62.1 °F 54% 30.09 in 10.0 mi ESE 8.1 mph - N/A   Overcast
1:53 PM 81.0 °F 82.5 °F 64.0 °F 56% 30.06 in 10.0 mi ESE 12.7 mph - N/A   Mostly Cloudy
2:53 PM 80.1 °F 81.7 °F 64.0 °F 58% 30.06 in 10.0 mi ESE 9.2 mph - N/A   Scattered Clouds
3:53 PM 79.0 °F - 62.1 °F 56% 30.06 in 10.0 mi East 6.9 mph - N/A   Overcast
4:53 PM 78.1 °F - 64.0 °F 62% 30.07 in 10.0 mi East 4.6 mph - N/A   Overcast
5:53 PM 77.0 °F - 64.0 °F 64% 30.09 in 10.0 mi ESE 3.5 mph - N/A   Overcast
6:53 PM 73.0 °F - 68.0 °F 84% 30.10 in 9.0 mi Calm Calm - 0.00 in Rain Light Rain
7:53 PM 71.1 °F - 66.0 °F 84% 30.12 in 10.0 mi South 4.6 mph - 0.03 in   Overcast
8:53 PM 71.1 °F - 66.0 °F 84% 30.13 in 10.0 mi ESE 4.6 mph - N/A   Overcast
9:53 PM 71.1 °F - 66.0 °F 84% 30.11 in 10.0 mi East 11.5 mph - N/A   Overcast
10:53 PM 71.1 °F - 68.0 °F 90% 30.10 in 10.0 mi ENE 6.9 mph - N/A   Overcast
11:53 PM 72.0 °F - 68.0 °F 87% 30.09 in 10.0 mi East 4.6 mph - N/A   Mostly Cloudy